Rome, GA

10:33 AM EST on November 13, 2019 (GMT -0500)
Russell

Weather History for KRMG - September, 2019

Change the Weather History Date:

Monday, September 30, 2019

  Actual Average Record
Temperature  
Mean Temperature 83 °F 67 °F  
Max Temperature 98 °F 79 °F 87 °F (2005)
Min Temperature 69 °F 55 °F 43 °F (2003)
Degree Days  
Heating Degree Days 0 2  
Month to date heating degree days 13  
Since 1 July heating degree days 14  
Cooling Degree Days 18 4  
Month to date cooling degree days 224  
Year to date cooling degree days 1590  
Growing Degree Days 33 (Base 50)    
Moisture  
Dew Point 66 °F    
Average Humidity 65    
Maximum Humidity 93    
Minimum Humidity 31    
Precipitation  
Precipitation 0.00 in 0.14 in 1.18 in (2012)
Month to date precipitation 3.41  
Year to date precipitation 38.83  
Sea Level Pressure  
Sea Level Pressure 30.11 in    
Wind  
Wind Speed 1 mph ()    
Max Wind Speed 5 mph    
Max Gust Speed -    
Visibility 8.6 miles    
Events      
T = Trace of Precipitation, MM = Missing Value Source: Averaged Metar Reports

Daily Weather History Graph

Daily Weather History Graph

Search for Another Location

Airport or City:

Astronomy

Sep. 30, 2019 Rise Set
Actual Time 7:34 AM EDT 7:26 PM EDT
Civil Twilight 7:09 AM EDT 7:51 PM EDT
Nautical Twilight 6:40 AM EDT 8:20 PM EDT
Astronomical Twilight 6:10 AM EDT 8:49 PM EDT
Moon 9:33 AM EDT (9/30) 9:06 PM EDT (9/30)
Length of Visible Light 12h 42m
Length of Day
11h 52m
Waxing Crescent, 5% of the Moon is Illuminated
Sep 30
Waxing Crescent
Oct 5
First Quarter
Oct 13
Full
Oct 21
Last Quarter
Oct 27
New

Hourly Weather History & Observations

Time (EDT) Temp. Heat Index Dew Point Humidity Pressure Visibility Wind Dir Wind Speed Gust Speed Precip Events Conditions
12:53 AM 73.9 °F - 70.0 °F 87% 30.14 in 9.0 mi Calm Calm - N/A   Clear
1:53 AM 73.0 °F - 69.1 °F 87% 30.13 in 7.0 mi Calm Calm - N/A   Clear
2:53 AM 72.0 °F - 68.0 °F 87% 30.13 in 7.0 mi Calm Calm - N/A   Clear
3:53 AM 71.1 °F - 68.0 °F 90% 30.12 in 6.0 mi Calm Calm - N/A   Clear
4:53 AM 71.1 °F - 68.0 °F 90% 30.12 in 6.0 mi Calm Calm - N/A   Clear
5:53 AM 69.1 °F - 66.0 °F 90% 30.13 in 7.0 mi Calm Calm - N/A   Clear
6:53 AM 69.1 °F - 66.9 °F 93% 30.14 in 7.0 mi Calm Calm - N/A   Clear
7:53 AM 69.1 °F - 66.0 °F 90% 30.16 in 4.0 mi Calm Calm - N/A   Clear
8:53 AM 73.0 °F - 68.0 °F 84% 30.17 in 5.0 mi NE 3.5 mph - N/A   Haze
9:53 AM 78.1 °F - 70.0 °F 76% 30.18 in 9.0 mi Calm Calm - N/A   Clear
10:53 AM 84.9 °F 88.2 °F 68.0 °F 57% 30.18 in 10.0 mi Calm Calm - N/A   Clear
11:53 AM 90.0 °F 93.6 °F 68.0 °F 48% 30.17 in 10.0 mi Calm Calm - N/A   Clear
12:53 PM 93.9 °F 97.5 °F 66.9 °F 41% 30.15 in 10.0 mi Calm Calm - N/A   Clear
1:53 PM 91.9 °F 94.1 °F 64.9 °F 41% 30.13 in 10.0 mi WNW 4.6 mph - N/A   Partly Cloudy
2:53 PM 95.0 °F 97.0 °F 64.0 °F 36% 30.10 in 10.0 mi Calm Calm - N/A   Partly Cloudy
3:53 PM 97.0 °F 99.3 °F 64.0 °F 34% 30.07 in 10.0 mi Variable 4.6 mph - N/A   Clear
4:53 PM 97.0 °F 97.8 °F 62.1 °F 31% 30.06 in 10.0 mi Calm Calm - N/A   Clear
5:53 PM 96.1 °F 96.9 °F 62.1 °F 32% 30.05 in 10.0 mi West 4.6 mph - N/A   Partly Cloudy
6:53 PM 93.9 °F 94.8 °F 62.1 °F 35% 30.04 in 10.0 mi West 4.6 mph - N/A   Clear
7:53 PM 82.9 °F 84.4 °F 64.0 °F 53% 30.05 in 10.0 mi Calm Calm - N/A   Clear
8:53 PM 80.1 °F 81.9 °F 64.9 °F 60% 30.05 in 10.0 mi Calm Calm - N/A   Clear
9:53 PM 75.9 °F - 64.9 °F 69% 30.06 in 10.0 mi Calm Calm - N/A   Clear
10:53 PM 75.0 °F - 66.0 °F 73% 30.07 in 10.0 mi Calm Calm - N/A   Clear
11:53 PM 73.0 °F - 66.0 °F 79% 30.07 in 10.0 mi Calm Calm - N/A   Clear